Accueil
METAR-TAF:

METAR-TAF

Aéroports :

Eastern Slopes Regional Airport

Fryeburg, Maine, États-Unis

latitude: 43-59-21N, longitude: 070-57-01W, altitude: 137 m

Observation

Le bulletin a été fait il y a 39 minutes, à 05:54 UTC
Vent calme
Température 2°C
Humidité 80%
Pression 1021 hPa
Visibilité: 16.1 km
Nuages fragmentés à une hauteur de 6500 ft
Ciel couvert à une hauteur de 8500 ft

METAR: KIZG 280554Z AUTO 00000KT 10SM BKN065 OVC085 02/M01 A3015 RMK AO2 SLP214 T00171011 10050 20017 56007

Heure: 02:33 (06:33 UTC)


TAF: absent

Observations et prévisions météorologiques de plus de 4000 aéroports (messages METAR et TAF).

Les stations disponibles sont représentées par des disques jaunes et rouges sur la carte.

Passer la souris dessus pour voir le nom de la station.

Cliquer dessus pour voir les observations et prévisions météorologiques.

Pour changer de carte: cliquez sur les boutons verts avec une croix noire pour zoomer, sur le bouton vert avec un tiret pour effectuer un zoom arrière, ou sur les flèches vertes pour les cartes adjacentes.


METAR-TAF: